Location: Tauranga
(37.6860°S, 176.1670°E)
Time: 02:45:30
(UTC+13:00)

SL-16 R/B - Pass Details

Date: 24 January 2019
Orbit: 842 x 846 km, 71.0° (Epoch: 22 February)

Event Time Altitude Azimuth Distance (km) Brightness Sun altitude
Rises 22:37:09 0° 314° (NW) 3,400 5.3 -20.4°
Reaches altitude 10° 22:39:48 10° 305° (NW) 2,472 4.7 -20.8°
Maximum altitude 22:44:57 35° 240° (WSW) 1,359 3.8 -21.5°
Drops below altitude 10° 22:50:09 10° 175° (S) 2,495 5.2 -22.1°
Sets 22:52:51 0° 166° (SSE) 3,436 5.9 -22.5°
